Temp_Advection
nan nan nan nan nan nan nan nan nan nan nan nan nan nan nan nan nan nan nan nan nan nan nan nan nan nan nan nan nan nan nan nan nan nan nan nan nan nan nan nan nan nan nan nan
nan -1 -0 -0 0 -0 -0 -0 -1 -1 0 0 0 -1 -1 0 -1 -1 -1 -1 -1 -1 -3 -3 -4 -5 -3 -3 -2 -1 0 -0 -1 -1 -0 -0 -0 -1 -1 -0 0 -0 0 nan
nan 0 0 0 -0 -0 -0 0 -0 -1 -1 -1 -0 -1 0 -0 -1 -1 -1 -1 -1 -0 -0 -2 -3 -3 -4 -3 -3 -2 -2 -1 -2 -3 -1 0 -1 -1 -1 -0 0 0 1 nan
nan 0 0 -0 -0 0 -0 -0 0 0 -0 -1 -0 -0 -0 -1 -2 -1 -1 -1 -1 -1 0 -0 -1 -2 -2 -2 -3 -2 -1 -3 -2 -3 -3 -1 0 -1 -0 0 1 0 -0 nan
nan 0 0 -0 -0 0 -0 -0 0 0 -0 -1 -0 -0 -0 -2 -2 -2 -2 -1 -1 -1 -1 0 -1 -1 -1 -1 -2 -2 -1 -2 -5 -5 -2 0 -1 -1 0 0 0 1 1 nan
nan 0 0 -0 0 -0 0 -0 -1 -0 1 -0 -1 0 -1 -1 -0 -1 -1 -1 -1 -0 -1 -0 -1 -1 -1 -1 -1 -1 -1 -2 -4 -4 -2 1 1 1 1 1 1 1 1 nan
nan 0 0 0 -0 -0 0 0 -0 -0 0 -1 -0 1 -1 0 0 -0 -0 -0 -1 -0 -0 -1 -1 -1 -1 -1 -1 -1 -1 -1 -2 -0 1 1 0 1 2 1 2 1 -0 nan
nan 0 -0 -0 -0 -0 -0 0 0 -0 -1 -1 -1 0 -0 -0 -1 -1 -1 -0 -1 -1 -1 -1 -0 -1 -1 -1 -1 -1 -0 0 1 1 1 1 1 2 2 2 -0 1 0 nan
nan -0 0 0 0 0 -0 -0 -0 0 -0 -0 0 -0 -0 -1 -1 -1 -1 -1 -1 -1 -0 -0 -0 -1 -1 -0 -0 -0 -0 2 2 1 1 1 1 1 1 1 0 0 0 nan
nan -0 -0 0 0 -0 -0 0 0 0 -0 -1 0 -1 -0 -1 -1 -1 -0 -1 -1 -0 -0 -0 -0 -0 -0 -0 -0 0 1 3 2 0 0 1 1 1 1 1 -0 0 0 nan
nan -0 1 -0 -0 -0 0 0 0 -0 0 0 0 -1 -0 -0 -0 -0 -0 -0 -0 -0 -0 -0 -0 -0 -0 0 0 1 2 3 0 -1 1 1 1 1 1 1 1 0 0 nan
nan -0 -1 -1 -0 -0 0 -0 0 0 -0 -0 0 -0 -0 0 -0 -0 -0 -0 -0 -0 -0 -0 -0 -0 0 -0 0 1 1 2 2 1 1 1 2 1 -1 1 1 0 0 nan
nan -0 -0 1 1 0 -0 -0 -0 0 0 0 0 -0 -0 -0 -1 -0 -0 -0 -0 -0 -0 -0 -0 -0 -0 -0 0 -0 1 3 -2 -3 -0 0 -1 -1 1 1 1 1 0 nan
nan -0 -0 -0 -0 -0 -0 -1 -0 0 -0 0 -0 -0 -0 -1 -0 -0 -0 0 0 0 -0 -0 -0 -0 -0 0 -0 0 2 -1 -2 -0 0 1 0 1 1 -0 0 0 0 nan
nan 0 -0 -1 0 0 -0 -0 -0 -0 -0 -0 -0 -0 -0 -0 -0 -0 0 0 0 0 -0 -0 -1 -0 -0 -0 -0 1 1 -0 0 1 1 1 2 1 0 -0 -0 -0 -0 nan
nan 0 -0 -0 -0 1 0 0 0 -0 -0 -0 -1 -0 -0 -0 -0 -0 -0 -0 -1 -0 -0 -0 -1 -0 -0 -0 -0 -0 -0 1 2 2 0 1 2 -0 -0 -0 -0 -1 -1 nan
nan 0 -0 -0 0 0 1 -0 0 0 0 -0 0 -1 -0 -0 -1 -1 -0 -1 -1 -0 -0 0 0 0 -0 -0 -0 -0 2 2 1 0 1 1 -1 -1 -1 -1 0 -1 -1 nan
nan 0 -0 -0 -0 1 -0 0 -0 -0 -0 -0 -1 -0 -0 -1 -1 -0 -0 -0 -0 -0 0 0 1 0 0 0 0 1 2 0 -0 -0 0 -1 -2 -1 -0 0 -0 -1 -1 nan
nan -0 -0 -0 0 -1 -0 0 0 0 -0 -0 -0 -0 -0 -0 -0 -1 -0 -0 -0 0 0 0 0 0 0 0 0 1 -0 -1 -1 -1 -0 -1 -1 0 0 -0 -1 -1 -0 nan
nan 0 -0 -0 0 0 -0 0 0 0 0 0 0 -0 -0 -0 0 -1 -0 -0 0 0 0 -0 -0 -0 0 0 0 -0 -0 -0 -1 -0 0 0 0 0 -0 -1 -1 -0 -0 nan
nan -0 -0 -0 0 -1 -0 0 0 0 -0 0 0 0 0 0 -1 -0 -0 -0 0 0 -0 -0 -0 -0 -0 -0 -0 0 0 0 0 0 0 -0 -1 -1 -1 -1 -0 -0 -0 nan
nan -0 -0 0 0 2 -1 0 -0 0 0 0 -0 -1 -1 -1 -0 -0 -0 0 0 0 -0 -0 -0 -0 -0 -0 -1 -0 -0 0 0 0 -1 -1 -1 -1 -1 -1 -1 -0 -0 nan
nan -0 -0 -0 -1 -1 -0 0 0 0 1 0 -0 -0 -1 -1 -0 -0 -0 0 0 0 -0 -0 -0 -0 -0 -1 -1 -1 -0 -0 -0 -0 -0 -0 -0 -0 -0 -1 -1 -1 -1 nan
nan -0 -0 0 -0 -0 -0 0 0 0 0 0 0 -0 -1 -1 -1 -0 0 0 -0 -0 -0 -0 -0 -1 -1 -1 -1 -0 -0 -1 -1 -1 -1 -1 -0 -0 -0 -0 -1 -1 -2 nan
nan 0 -0 -0 -0 -1 -0 0 0 0 0 0 0 -0 -0 -0 -0 -0 -0 -0 -0 -0 -0 -0 -0 -1 -1 -0 0 0 0 -0 -0 -1 -1 -1 -1 -1 -1 -0 -0 -0 -1 nan
nan nan nan nan nan nan nan nan nan nan nan nan nan nan nan nan nan nan nan nan nan nan nan nan nan nan nan nan nan nan nan nan nan nan nan nan nan nan nan nan nan nan nan nan
Wind_Speed
10 9 11 10 6 9 12 16 17 15 13 11 16 22 20 22 14 14 20 23 26 29 31 30 31 31 31 31 33 35 35 32 30 30 37 38 38 34 33 30 30 32 37 39
8 13 2 1 5 10 14 17 19 15 5 14 19 22 21 2 8 11 18 23 26 30 31 31 30 28 27 25 23 23 27 27 32 36 42 40 38 36 36 34 34 31 33 38
13 6 3 6 10 13 15 15 18 18 18 18 19 18 13 6 7 20 22 24 26 28 30 30 29 27 28 27 20 21 26 28 34 33 40 40 37 36 37 36 35 36 33 35
11 4 7 9 12 12 15 11 13 18 15 14 16 15 16 5 11 17 25 28 28 29 29 28 27 28 26 26 27 32 28 28 36 41 32 46 44 43 40 37 36 34 35 35
2 8 10 12 11 4 10 11 16 19 19 18 20 11 5 8 16 22 24 27 29 27 28 29 28 28 26 25 28 27 26 24 37 46 37 45 48 41 39 37 35 35 35 31
19 10 7 11 3 9 12 14 19 20 13 12 17 5 4 8 13 17 21 27 29 27 26 26 26 26 26 23 22 18 12 22 33 36 38 42 48 40 37 36 34 35 33 32
12 16 10 8 10 10 9 12 8 8 6 14 6 9 7 12 14 14 18 24 28 28 27 27 30 30 29 26 20 12 9 10 21 13 31 34 41 41 38 35 32 34 32 28
6 5 13 11 8 6 10 9 7 8 11 18 22 5 5 12 16 19 21 24 28 30 29 29 30 29 28 27 20 14 10 2 13 8 13 23 37 40 33 33 5 23 20 19
3 4 6 6 8 7 3 9 6 11 19 14 6 4 3 15 16 21 22 25 29 30 30 33 34 30 29 28 23 19 15 15 15 14 14 16 21 20 23 26 29 16 13 14
1 4 6 4 6 13 11 6 5 4 5 9 5 4 5 15 16 15 17 24 27 29 32 36 38 37 32 30 31 25 22 28 23 18 18 15 15 14 25 28 26 20 22 20
3 2 6 6 11 4 7 5 4 10 9 6 9 4 6 9 11 14 17 22 27 30 33 36 40 39 35 34 38 37 31 35 34 29 23 21 20 16 17 17 22 23 20 20
2 4 6 7 6 3 5 6 10 5 8 6 5 3 4 8 12 16 18 21 27 28 33 33 37 40 42 42 44 43 40 39 37 30 29 27 21 11 16 7 11 11 11 15
6 5 6 11 9 5 3 7 10 13 12 15 9 4 5 10 13 16 17 20 24 29 32 34 39 41 46 42 42 41 40 37 32 31 28 27 28 26 22 17 13 10 5 5
1 6 8 7 6 2 3 8 9 7 4 3 4 7 6 10 11 15 18 18 20 24 29 33 36 39 41 43 43 40 40 40 33 27 29 32 33 30 28 22 19 16 13 9
4 4 7 11 3 3 3 2 6 6 8 4 7 5 6 8 9 13 14 16 20 24 28 30 32 35 38 39 40 38 37 35 31 34 36 40 38 35 31 25 24 22 19 17
4 1 2 5 13 11 2 1 5 2 5 8 9 6 3 5 7 11 14 16 19 22 24 25 27 31 37 35 34 33 35 34 31 34 37 37 38 35 34 32 30 25 21 20
6 3 3 4 7 6 9 7 5 5 4 3 3 6 6 4 8 11 12 14 15 17 20 22 24 26 28 30 31 32 32 34 35 35 35 36 36 34 33 28 28 29 27 23
5 3 3 5 3 5 5 7 7 9 5 7 9 8 6 8 8 9 11 11 13 14 16 19 24 26 28 25 26 29 33 35 36 37 36 32 29 27 26 27 29 29 26 26
10 4 3 4 7 5 6 9 6 4 4 2 6 9 9 7 5 11 11 10 12 13 14 16 17 19 21 26 24 27 32 33 31 33 31 31 28 27 27 28 27 25 24 25
9 8 4 4 6 4 6 5 3 1 6 4 6 8 11 9 4 4 7 8 10 12 13 15 16 17 20 21 21 24 31 32 33 29 30 28 27 27 27 26 24 22 22 22
7 8 11 9 8 6 3 3 4 6 5 8 6 8 10 6 5 7 4 7 8 10 13 13 15 18 20 20 21 23 25 30 29 28 27 26 26 25 24 22 21 20 19 19
10 7 5 6 6 10 5 5 3 9 14 12 12 12 16 15 10 7 6 6 8 9 11 13 14 17 18 19 20 21 23 21 20 20 21 22 21 24 24 22 20 19 19 20
4 3 2 5 4 6 5 11 11 12 14 12 14 13 13 13 9 7 6 7 8 8 9 11 12 13 15 17 18 18 20 19 19 18 19 19 20 19 19 21 22 22 21 20
2 2 3 6 5 7 9 11 14 13 12 12 11 12 11 12 9 8 7 7 7 8 10 10 11 14 16 17 18 18 19 19 18 18 19 18 19 20 19 17 19 20 23 21
1 7 6 4 8 11 8 11 13 14 11 11 10 10 11 11 10 8 8 7 8 8 9 10 11 12 14 14 16 17 18 18 17 16 17 18 17 18 17 17 21 20 23 23
3 4 3 1 16 3 15 12 13 14 11 10 10 11 10 9 9 8 8 8 7 8 8 9 11 11 12 14 16 17 17 17 17 16 17 17 17 17 16 15 14 20 23 26
Wind_Direction
191 261 245 336 344 308 298 290 291 296 311 296 287 293 296 301 36 11 350 338 333 327 320 317 311 303 293 278 267 259 260 262 248 246 228 217 214 212 212 206 205 229 217 218
230 242 289 334 282 284 286 287 287 302 271 311 301 293 285 307 66 28 355 342 337 330 326 323 318 312 297 310 288 273 264 262 256 257 233 222 213 212 212 206 208 213 221 216
254 302 140 246 280 280 277 288 296 306 313 289 273 296 147 97 41 8 358 344 338 331 329 327 324 318 308 308 300 281 277 265 263 256 231 223 213 213 208 207 206 209 222 216
265 249 235 236 271 274 282 295 302 295 304 299 315 283 292 35 23 355 353 349 339 333 330 331 333 325 314 305 295 270 275 267 262 258 244 215 211 207 204 202 205 207 207 221
176 206 225 243 267 304 280 319 292 289 287 285 280 252 86 34 353 352 352 347 339 334 333 334 335 332 321 309 299 279 263 268 255 253 232 213 213 209 203 201 203 202 206 212
261 267 253 252 244 249 286 284 281 261 262 275 279 257 41 18 346 344 345 347 343 341 336 334 337 338 333 325 308 280 267 263 253 250 221 212 217 207 202 200 197 199 213 200
217 230 209 236 246 218 234 278 300 284 245 263 259 317 50 21 15 358 349 353 348 349 346 344 347 348 344 336 325 333 308 256 220 218 213 209 218 211 206 195 198 193 210 201
258 207 188 185 239 309 299 280 289 300 299 303 308 308 92 30 21 3 353 360 356 356 351 353 359 353 346 346 350 358 2 41 142 137 166 193 205 216 191 180 283 171 214 219
276 256 161 207 253 244 97 255 350 281 279 271 252 120 165 10 6 1 358 358 360 358 353 359 7 359 356 3 8 16 22 65 105 94 104 130 174 187 209 178 190 213 180 198
108 277 229 178 239 232 237 304 289 232 284 297 310 114 1 353 356 357 1 356 357 358 358 5 11 0 10 18 13 37 39 65 78 84 87 96 115 149 165 182 207 238 229 238
172 223 136 269 209 309 194 255 282 286 268 279 286 101 3 3 7 360 358 355 357 358 0 9 12 5 14 26 27 35 39 58 66 74 83 92 92 104 134 176 206 237 239 230
166 226 261 261 68 118 280 17 320 285 285 315 315 93 25 24 17 12 360 357 360 360 3 11 16 10 22 31 28 39 45 53 55 55 59 66 75 85 91 143 173 219 232 234
182 230 268 153 148 162 359 356 323 294 277 261 269 102 59 25 25 19 9 2 1 3 5 11 18 17 20 28 35 37 38 52 50 47 52 63 72 82 94 90 104 120 134 179
291 249 274 312 29 18 338 328 326 292 242 147 47 118 31 23 16 12 10 6 4 8 8 11 14 18 23 26 30 35 47 55 57 61 52 58 62 60 61 61 61 71 71 77
243 253 296 272 268 188 48 327 358 354 316 324 109 98 42 30 15 15 10 13 13 13 12 11 10 16 26 24 27 32 46 50 46 54 55 54 57 55 56 54 51 51 48 49
172 245 309 260 232 232 216 206 203 97 82 98 125 97 89 64 45 30 23 18 15 14 12 10 12 20 23 24 23 29 37 46 49 49 51 51 54 53 53 51 49 51 52 48
171 220 230 264 184 194 217 177 143 141 43 226 236 108 147 78 46 34 24 24 18 14 13 14 17 20 21 23 25 30 35 43 47 49 51 52 50 50 50 53 55 54 51 48
172 197 264 279 172 237 94 158 169 127 95 90 107 134 131 105 85 55 34 26 21 19 18 16 15 24 25 25 30 37 43 45 45 47 48 52 49 51 51 52 53 51 49 49
212 187 253 259 238 104 167 199 192 220 116 89 143 151 154 154 149 64 33 28 24 22 23 23 24 24 23 22 28 37 43 41 44 46 48 51 48 49 48 47 45 45 42 43
185 223 250 266 253 272 77 124 156 163 197 144 152 170 185 183 255 76 23 25 28 25 27 26 26 28 30 27 25 32 32 33 33 36 39 41 42 43 44 45 43 44 42 41
188 214 229 237 260 104 88 156 135 208 105 134 132 163 162 158 67 109 61 31 32 29 29 31 30 32 30 27 24 29 27 27 19 20 29 32 34 36 35 34 35 36 37 36
196 207 211 231 255 237 36 146 241 112 121 126 115 107 111 119 116 102 84 64 43 37 34 35 33 33 30 29 28 26 28 21 22 22 22 24 25 23 23 24 28 30 29 26
234 313 1 5 40 75 50 84 113 121 122 124 121 123 124 123 120 115 95 71 57 48 42 41 40 38 34 31 31 29 24 21 18 21 23 21 21 20 20 21 18 18 22 22
134 82 97 179 123 110 95 107 113 118 115 120 121 125 127 122 121 114 93 77 64 51 46 41 39 37 32 27 26 24 18 18 17 17 16 18 14 18 15 14 18 12 13 15
91 156 152 92 129 119 115 122 120 114 116 118 119 121 120 121 117 113 98 82 70 61 50 47 43 37 31 24 21 18 17 15 16 13 14 10 11 11 11 7 6 5 0 4
170 153 210 150 161 101 140 138 134 124 123 123 122 115 108 114 114 111 98 86 76 64 56 47 40 34 25 20 14 12 11 11 10 10 4 3 4 3 1 2 1 348 349 353
Height
1498 1495 1479 1472 1482 1486 1485 1480 1474 1465 1463 1469 1464 1456 1448 1446 1454 1463 1463 1462 1460 1459 1455 1451 1445 1439 1434 1433 1433 1431 1431 1430 1431 1433 1432 1435 1439 1442 1446 1452 1456 1454 1459 1465
1495 1485 1474 1484 1487 1488 1484 1479 1470 1461 1460 1462 1457 1450 1441 1443 1455 1464 1466 1464 1462 1460 1455 1449 1444 1439 1434 1427 1424 1423 1422 1422 1422 1426 1425 1428 1433 1436 1439 1445 1448 1450 1450 1455
1485 1474 1484 1485 1482 1481 1474 1473 1468 1467 1461 1456 1446 1440 1433 1437 1450 1463 1467 1467 1464 1461 1454 1447 1441 1436 1431 1425 1419 1417 1416 1417 1416 1415 1419 1420 1426 1431 1433 1436 1440 1442 1445 1448
1481 1476 1480 1479 1478 1477 1475 1466 1470 1468 1465 1457 1449 1450 1429 1444 1454 1466 1466 1465 1464 1458 1453 1446 1438 1432 1428 1421 1415 1412 1409 1411 1409 1402 1402 1404 1411 1416 1420 1427 1434 1437 1439 1440
1470 1476 1477 1475 1472 1475 1474 1471 1472 1467 1462 1454 1439 1436 1420 1448 1463 1466 1468 1468 1465 1458 1452 1444 1435 1428 1423 1417 1410 1405 1403 1401 1396 1393 1393 1394 1404 1410 1413 1420 1426 1431 1433 1434
1476 1473 1476 1471 1472 1475 1474 1471 1460 1449 1446 1450 1423 1430 1429 1469 1477 1474 1474 1470 1465 1458 1451 1444 1435 1426 1419 1412 1406 1400 1395 1391 1387 1384 1384 1387 1395 1402 1408 1412 1417 1425 1428 1429
1465 1466 1470 1475 1471 1463 1469 1463 1461 1450 1455 1440 1419 1423 1464 1467 1473 1477 1474 1471 1465 1458 1451 1443 1432 1422 1415 1410 1402 1395 1390 1385 1379 1380 1377 1379 1389 1396 1402 1406 1414 1415 1424 1425
1462 1463 1465 1469 1468 1465 1465 1464 1465 1470 1452 1441 1433 1434 1469 1469 1474 1477 1475 1471 1465 1458 1451 1442 1431 1422 1417 1410 1400 1394 1385 1381 1372 1377 1374 1376 1382 1388 1392 1394 1378 1400 1420 1419
1470 1468 1460 1468 1467 1468 1461 1463 1460 1466 1453 1448 1436 1459 1467 1471 1476 1478 1476 1472 1467 1460 1452 1443 1430 1425 1418 1407 1392 1392 1386 1378 1374 1375 1377 1377 1380 1384 1387 1371 1404 1412 1416 1418
1476 1484 1461 1463 1466 1461 1464 1458 1467 1467 1466 1446 1426 1459 1464 1479 1481 1480 1476 1474 1469 1464 1455 1444 1434 1429 1418 1397 1398 1390 1388 1374 1374 1376 1379 1383 1383 1385 1386 1385 1402 1408 1415 1422
1477 1493 1462 1463 1455 1449 1456 1462 1466 1463 1453 1454 1441 1462 1486 1487 1487 1484 1481 1477 1472 1466 1459 1448 1435 1432 1422 1408 1392 1391 1384 1377 1377 1386 1389 1389 1390 1390 1387 1397 1397 1413 1415 1417
1476 1482 1472 1453 1449 1458 1458 1461 1465 1474 1453 1459 1448 1467 1488 1487 1488 1487 1484 1480 1474 1468 1461 1454 1445 1432 1418 1408 1399 1390 1385 1384 1385 1388 1384 1384 1392 1389 1381 1406 1404 1410 1411 1412
1481 1476 1463 1449 1456 1458 1461 1465 1471 1472 1469 1459 1458 1469 1485 1487 1489 1489 1487 1482 1477 1471 1462 1455 1447 1437 1427 1417 1411 1401 1400 1391 1388 1395 1398 1396 1395 1402 1405 1403 1408 1408 1408 1410
1484 1474 1468 1454 1458 1466 1471 1472 1472 1469 1467 1452 1461 1479 1486 1489 1490 1490 1488 1485 1481 1475 1467 1459 1452 1446 1436 1427 1418 1415 1408 1405 1413 1416 1413 1406 1401 1399 1392 1404 1405 1401 1404 1404
1479 1479 1476 1467 1465 1469 1476 1482 1475 1473 1462 1460 1473 1480 1489 1492 1494 1493 1491 1487 1483 1477 1471 1465 1458 1452 1445 1438 1430 1423 1420 1421 1422 1417 1411 1399 1399 1397 1397 1403 1402 1396 1399 1400
1476 1480 1481 1475 1466 1468 1477 1481 1475 1475 1475 1476 1474 1485 1492 1494 1495 1494 1492 1489 1486 1482 1478 1471 1464 1456 1450 1448 1445 1437 1433 1427 1425 1418 1408 1405 1398 1403 1406 1405 1403 1404 1409 1409
1475 1476 1478 1457 1456 1460 1466 1477 1475 1476 1471 1468 1463 1483 1491 1492 1495 1496 1495 1492 1490 1487 1482 1477 1472 1465 1461 1455 1451 1446 1440 1436 1427 1421 1417 1411 1410 1412 1413 1421 1420 1415 1415 1417
1475 1477 1471 1456 1459 1458 1475 1470 1469 1470 1474 1474 1481 1486 1489 1493 1497 1497 1496 1495 1493 1489 1486 1482 1477 1472 1468 1463 1459 1454 1447 1441 1436 1429 1425 1425 1430 1433 1434 1429 1424 1424 1425 1423
1468 1474 1467 1456 1444 1472 1476 1472 1469 1466 1477 1479 1480 1487 1492 1495 1495 1496 1497 1496 1494 1492 1489 1486 1482 1479 1476 1470 1465 1460 1456 1454 1452 1449 1448 1442 1444 1441 1436 1431 1431 1431 1431 1428
1468 1470 1471 1454 1452 1445 1468 1472 1474 1473 1470 1480 1481 1485 1489 1493 1489 1494 1497 1496 1495 1494 1491 1488 1486 1482 1478 1476 1471 1468 1465 1462 1459 1456 1452 1451 1450 1445 1443 1442 1443 1441 1437 1436
1464 1464 1462 1455 1449 1460 1475 1478 1478 1471 1475 1480 1481 1483 1485 1491 1497 1498 1498 1497 1497 1496 1493 1491 1488 1485 1482 1479 1476 1472 1470 1466 1465 1461 1458 1456 1454 1450 1449 1448 1446 1445 1443 1441
1450 1450 1452 1451 1449 1449 1479 1481 1476 1477 1480 1483 1485 1487 1490 1494 1498 1499 1498 1498 1499 1498 1495 1494 1492 1488 1486 1484 1482 1479 1476 1476 1474 1471 1468 1464 1462 1458 1457 1454 1451 1447 1445 1442
1452 1450 1452 1462 1469 1480 1481 1479 1480 1482 1484 1486 1488 1490 1493 1495 1497 1499 1499 1499 1500 1500 1499 1497 1496 1494 1491 1488 1486 1485 1483 1481 1479 1476 1473 1471 1467 1466 1462 1458 1454 1450 1447 1445
1460 1461 1466 1470 1479 1481 1483 1483 1483 1485 1487 1489 1491 1492 1494 1495 1498 1500 1501 1501 1502 1501 1500 1499 1498 1495 1492 1490 1487 1485 1483 1481 1481 1478 1475 1472 1470 1467 1465 1461 1457 1454 1452 1449
1460 1463 1466 1477 1480 1482 1485 1486 1486 1487 1490 1492 1494 1495 1496 1497 1498 1500 1502 1503 1503 1503 1502 1501 1499 1497 1495 1492 1489 1486 1484 1483 1482 1479 1477 1474 1473 1471 1469 1466 1462 1460 1456 1453
1461 1463 1464 1460 1472 1476 1483 1487 1488 1490 1493 1495 1496 1496 1496 1498 1499 1501 1503 1503 1504 1504 1503 1502 1500 1498 1496 1493 1490 1488 1485 1483 1481 1480 1478 1477 1474 1472 1470 1469 1467 1462 1460 1456